Epoch 2014 July 2.0 TT = JDT 2456840.5
T 2014 July 4.54065 TT MPCW
q 0.7842907 (2000.0) P Q
n 0.20355256 Peri. 345.44778 +0.99148835 +0.12972068
a 2.8621013 Node 7.12663 -0.10870643 +0.87177593
e 0.7259738 Incl. 5.13688 -0.07165022 +0.47241854
P 4.84
From 199 observations 2004 Dec. 9-2015 Jan. 27, mean residual 0".6.
Finding Charts
Magnitudes Graph
H = 18.5 G = 0.15 [ ,-75] ( - 2014 Apr. 20)
m1 = 17.5 + 5 log d + 20.0 log r(t - 10) [-75, 95] (2014 Apr. 20 - 2014 Oct. 7)
H = 18.5 G = 0.15 [ 95, ] (2014 Oct. 7 - )